Hourly Data Report for May 05, 2015

All times are specified in Local Standard Time (LST). Add 1 hour to adjust for Daylight Saving Time where and when it is observed.

CHARLOTTETOWN A
PRINCE EDWARD ISLAND

46°17'21.000" N
63°07'09.000" W
48.50 m
8300301
71706
YYG

Download Data

Hourly Data (May 2015)
Hourly Data Report for May 5, 2015
Temp Definition
°C
Dew Point Temp Definition
°C
Rel Hum Definition
%
Wind Dir Definition
10's deg

Wind Spd Definition
km/h
Visibility Definition
km
Stn Press Definition
kPa
Hmdx Definition


Wind Chill Definition


Weather Definition


TIME
00:00 Legend Double Dagger 10.6 6.2 74 19 17 24.1 100.81     LegendNANA
01:00 Legend Double Dagger 9.6 6.0 78 18 17 24.1 100.71     LegendNANA
02:00 Legend Double Dagger 10.5 6.7 77 19 20 24.1 100.61     Mostly Cloudy
03:00 Legend Double Dagger 11.4 6.4 71 22 22 24.1 100.56     LegendNANA
04:00 Legend Double Dagger 11.7 6.2 69 23 26 24.1 100.52     LegendNANA
05:00 Legend Double Dagger 10.6 6.6 76 23 21 24.1 100.52     Rain Showers
06:00 Legend Double Dagger 10.5 6.7 77 23 18 16.1 100.59     Rain Showers
07:00 Legend Double Dagger 9.8 6.4 79 24 21 24.1 100.64     Rain Showers
08:00 Legend Double Dagger 9.9 6.8 81 25 15 24.1 100.67     Rain Showers
09:00 Legend Double Dagger 12.9 7.8 71 26 21 24.1 100.72     LegendNANA
10:00 Legend Double Dagger 14.7 8.5 66 30 22 24.1 100.77     LegendNANA
11:00 Legend Double Dagger 15.5 7.4 58 31 24 24.1 100.83     Mostly Cloudy
12:00 Legend Double Dagger 14.1 3.9 50 32 32 24.1 100.92     LegendNANA
13:00 Legend Double Dagger 15.3 2.6 42 31 20 24.1 100.95     LegendNANA
14:00 Legend Double Dagger 15.7 2.9 42 30 19 24.1 100.96     Mainly Clear
15:00 Legend Double Dagger 16.2 2.3 39 31 21 24.1 100.94     LegendNANA
16:00 Legend Double Dagger 15.6 2.1 40 33 16 24.1 100.95     LegendNANA
17:00 Legend Double Dagger 15.8 0.9 36 33 13 24.1 100.93     Mainly Clear
18:00 Legend Double Dagger 14.5 0.8 39 32 10 24.1 100.94     LegendNANA
19:00 Legend Double Dagger 10.4 0.5 50 35 12 24.1 101.06     LegendNANA
20:00 Legend Double Dagger 8.9 -1.2 49 34 13 24.1 101.13     Mainly Clear
21:00 Legend Double Dagger 7.1 -1.1 56 32 7 24.1 101.15     LegendNANA
22:00 Legend Double Dagger 6.0 -1.4 59 28 4 24.1 101.12     LegendNANA
23:00 Legend Double Dagger 6.4 -1.0 59 20 14 24.1 101.15     Mainly Clear

Notes on Data Quality.

Legend

  • E = Estimated
  • M = Missing
  • NA = Not Available
  • ‡ = Partner data that is not subject to review by the National Climate Archives
Date modified: